Regional Weather Roundup
Issued by NWS Midland/Odessa, TX

Skip options and go directly to product.
Home | Oldest Version | Previous Version | Current Version | All | Text Only | Save Text | Print | Product List | Glossary On

Skip product version selection by date and time.   
187
ASUS44 KMAF 311110
RWRMAF
MIDLAND AREA WEATHER ROUNDUP
NATIONAL WEATHER SERVICE MIDLAND TX
600 AM CDT FRI OCT 31 2014

...IN SOUTHWEST TEXAS AND SOUTHEAST NEW MEXICO...

CITY           SKY/WX    TMP DP  RH WIND       PRES   REMARKS
ALPINE         CLOUDY    58  54  84 NE12      30.38R
ANDREWS        FAIR      46  35  66 NE6       30.34R
ARTESIA        NOT AVBL
BIG SPRING     CLEAR     54  37  53 N3        30.34R
CARLSBAD       PTCLDY    55  37  50 E5        30.34S
DRYDEN           N/A     67  59  75 N10       30.20R
FORT STOCKTON  CLOUDY    61  53  75 NE5       30.29R
GUAD PASS      PTCLDY    52  37  56 NE37G48   30.35R
HOBBS          NOT AVBL
MARFA          CLEAR     55  50  82 N13       30.33R
MIDLAND AIRPK  CLEAR     54  38  56 NE5       30.33R
MIDLAND INTL   CLEAR     52  38  58 NE9       30.31R
ODESSA         CLEAR     51  37  58 NE10      30.32R
PECOS          MOCLDY    58  46  63 N6        30.30R
PRESIDIO       FAIR      66  50  56 N14       30.21R
SEMINOLE       CLEAR     46  33  61 N5        30.35F
SNYDER         CLEAR     51  35  52 NE9       30.32S
WINK           MOCLDY    55  38  52 N6        30.30R
$$
...OTHER STATIONS IN TEXAS...

CITY           SKY/WX    TMP DP  RH WIND       PRES   REMARKS
ABILENE        CLEAR     50  38  63 NW6       30.30R
AMARILLO       CLEAR     38  31  76 NE9       30.40R WCI  31
AUSTIN         PTCLDY    60  59  96 CALM      30.18R
BROWNSVILLE    CLEAR     69  67  93 N6        30.06R
CORPUS CHRISTI CLOUDY    70  68  93 CALM      30.07R
DALLAS FTW     CLEAR     56  41  57 N14       30.22R
DEL RIO        MOCLDY    69  60  73 NE8       30.12R
EL PASO        PTCLDY    59  49  69 NE5       30.27S
HOUSTON INT    PTCLDY    58  53  84 CALM      30.12R
LUBBOCK        CLEAR     42  31  64 N5        30.36R WCI  39
SAN ANGELO     CLEAR     60  44  55 NE8       30.28R
SAN ANTONIO    CLOUDY    66  63  90 N9        30.17S
WACO           CLEAR     56  49  77 NW10      30.20R
WICHITA FALLS  NOT AVBL
$$
...OTHER LOCATIONS IN NEW MEXICO...

CITY           SKY/WX    TMP DP  RH WIND       PRES   REMARKS
ALAMAGORDO     NOT AVBL
ALBUQUERQUE    PTCLDY    54  25  32 E20       30.34S
CANNON AFB     CLEAR     41  28  60 NE8       30.39S WCI  36
CLOVIS         CLEAR     37  27  65 N7        30.41S WCI  32
HOLLOMAN AFB   CLEAR     49  35  58 N8        30.27R
ROSWELL        CLEAR     44  34  67 CALM      30.38R
RUIDOSO        PTCLDY    41  28  60 SE5       30.46S WCI  38
SANTA FE       CLEAR     42  22  44 SE6       30.41S WCI  38
TRUTH OR CONSE PTCLDY    49  28  44 NW5       30.29S
TUCUMCARI      CLEAR     40  27  59 N9        30.39S WCI  34
$$

USA.gov is the U.S. government's official web portal to all federal, state and local government web resources and services.